Location: Karcze
(52.0945°N, 22.4786°E)
Time: 23:04:09
(UTC+00:00)

Transit 4A - Pass Details

Date: 01 August 2021
Orbit: 871 x 974 km, 66.8° (Epoch: 18 September)

Event Time Altitude Azimuth Distance (km) Brightness Sun altitude
Exits shadow 21:03:43 18° 114° (ESE) 2,047 9.3 -17.3°
Maximum altitude 21:04:20 18° 106° (ESE) 2,030 9.3 -17.3°
Drops below altitude 10° 21:08:05 10° 65° (ENE) 2,528 10.2 -17.5°
Sets 21:11:20 0° 47° (NE) 3,469 11.2 -17.7°
